Weather History for Menominee, MI

Change the Weather History Date:

Thursday, December 5, 2013

  Actual Average Record
Temperature  
Mean Temperature 24 °F -  
Max Temperature 39 °F 34 °F 60 °F (2001)
Min Temperature 8 °F 19 °F 1 °F (2008)
Degree Days  
Heating Degree Days 42    
Moisture  
Dew Point 12 °F    
Average Humidity 67    
Maximum Humidity 87    
Minimum Humidity 49    
Precipitation  
Precipitation 0.07 in - - ()
Sea Level Pressure  
Sea Level Pressure 29.81 in    
Wind  
Wind Speed 13 mph (West)    
Max Wind Speed 20 mph    
Max Gust Speed 33 mph    
Visibility 10 miles    
Events      
Averages and records for this station are not official NWS values.
T = Trace of Precipitation, MM = Missing Value Source: NWS Daily Summary

Daily Weather History Graph

Daily Weather History Graph

Search for Another Location

Airport:

Trip Planner

Search our weather history database for the weather conditions in past years. The results will help you decide how hot, cold, wet, or windy it might be!

Date:

Astronomy

Dec. 05, 2013 Rise Set
Actual Time 7:13 AM CST 4:08 PM CST
Civil Twilight 6:40 AM CST 4:42 PM CST
Nautical Twilight 6:03 AM CST 5:19 PM CST
Astronomical Twilight 5:27 AM CST 5:54 PM CST
Moon 9:29 AM CST (12/5) 7:33 PM CST (12/5)
Length of Visible Light 10h 02m
Length of Day
8h 55m
Waxing Crescent, 11% of the Moon is Illuminated
Dec 5
Waxing Crescent
Dec 9
First Quarter
Dec 17
Full
Dec 25
Last Quarter
Jan 1
New

Hourly Weather History & Observations

Time (CST) Temp. Windchill Dew Point Humidity Pressure Visibility Wind Dir Wind Speed Gust Speed Precip Events Conditions
12:15 AM 39.2 °F 31.2 °F 33.8 °F 81% 29.42 in 10.0 mi West 13.8 mph 24.2 mph N/A   Overcast
12:35 AM 37.4 °F 29.3 °F 33.8 °F 87% 29.43 in 10.0 mi West 12.7 mph 20.7 mph N/A   Overcast
12:55 AM 37.4 °F 28.5 °F 33.8 °F 87% 29.43 in 10.0 mi West 15.0 mph 23.0 mph N/A   Overcast
1:15 AM 35.6 °F 28.0 °F 32.0 °F 87% 29.44 in 10.0 mi West 10.4 mph 19.6 mph N/A   Overcast
1:35 AM 35.6 °F 27.1 °F 32.0 °F 87% 29.44 in 10.0 mi West 12.7 mph 26.5 mph N/A   Overcast
1:55 AM 35.6 °F 26.6 °F 32.0 °F 87% 29.46 in 10.0 mi West 13.8 mph 23.0 mph N/A   Overcast
2:15 AM 35.6 °F 30.7 °F 30.2 °F 81% 29.47 in 10.0 mi West 5.8 mph 26.5 mph N/A   Overcast
2:35 AM 33.8 °F 22.5 °F 26.6 °F 75% 29.50 in 10.0 mi West 19.6 mph 33.4 mph N/A   Overcast
2:55 AM 33.8 °F 23.2 °F 26.6 °F 75% 29.49 in 10.0 mi West 17.3 mph 32.2 mph N/A   Overcast
3:15 AM 33.8 °F 24.8 °F 28.4 °F 81% 29.51 in 10.0 mi West 12.7 mph 19.6 mph N/A   Overcast
3:35 AM 33.8 °F 25.3 °F 24.8 °F 70% 29.48 in 10.0 mi West 11.5 mph 20.7 mph N/A   Overcast
3:55 AM 32.0 °F 22.1 °F 24.8 °F 75% 29.51 in 10.0 mi West 13.8 mph 24.2 mph N/A   Overcast
4:15 AM 32.0 °F 23.0 °F 24.8 °F 75% 29.53 in 10.0 mi West 11.5 mph 20.7 mph N/A   Overcast
4:35 AM 32.0 °F 22.1 °F 24.8 °F 75% 29.55 in 10.0 mi West 13.8 mph 20.7 mph N/A   Overcast
4:55 AM 30.2 °F 20.2 °F 24.8 °F 80% 29.56 in 10.0 mi West 12.7 mph 20.7 mph N/A   Overcast
5:15 AM 30.2 °F 20.2 °F 24.8 °F 80% 29.56 in 10.0 mi West 12.7 mph 24.2 mph N/A   Overcast
5:35 AM 30.2 °F 19.8 °F 23.0 °F 75% 29.57 in 10.0 mi West 13.8 mph 20.7 mph N/A   Overcast
5:55 AM 28.4 °F 18.0 °F 21.2 °F 74% 29.60 in 10.0 mi West 12.7 mph 17.3 mph N/A   Overcast
6:15 AM 28.4 °F 18.0 °F 21.2 °F 74% 29.59 in 10.0 mi West 12.7 mph 20.7 mph N/A   Overcast
6:35 AM 26.6 °F 14.3 °F 17.6 °F 69% 29.62 in 10.0 mi West 16.1 mph 26.5 mph N/A   Mostly Cloudy
6:55 AM 26.6 °F 14.7 °F 19.4 °F 74% 29.63 in 10.0 mi West 15.0 mph 23.0 mph N/A   Mostly Cloudy
7:15 AM 26.6 °F 16.2 °F 19.4 °F 74% 29.65 in 10.0 mi WNW 11.5 mph 19.6 mph N/A   Overcast
7:35 AM 24.8 °F 11.9 °F 15.8 °F 69% 29.66 in 10.0 mi West 16.1 mph 23.0 mph N/A   Mostly Cloudy
7:55 AM 23.0 °F 9.2 °F 15.8 °F 74% 29.68 in 10.0 mi West 17.3 mph 26.5 mph N/A   Mostly Cloudy
8:15 AM 23.0 °F 11.7 °F 12.2 °F 63% 29.70 in 10.0 mi West 11.5 mph 23.0 mph N/A   Mostly Cloudy
8:35 AM 21.2 °F 7.8 °F 8.6 °F 58% 29.71 in 10.0 mi West 15.0 mph 26.5 mph N/A   Partly Cloudy
8:55 AM 21.2 °F 6.8 °F 10.4 °F 63% 29.72 in 10.0 mi West 17.3 mph 28.8 mph N/A   Clear
9:15 AM 19.4 °F 5.0 °F 10.4 °F 68% 29.73 in 10.0 mi West 16.1 mph 26.5 mph N/A   Clear
9:35 AM 19.4 °F 8.6 °F 8.6 °F 63% 29.75 in 10.0 mi West 9.2 mph 19.6 mph N/A   Partly Cloudy
9:55 AM 19.4 °F 6.6 °F 8.6 °F 63% 29.76 in 10.0 mi West 12.7 mph 25.3 mph N/A   Partly Cloudy
10:15 AM 19.4 °F 6.0 °F 8.6 °F 63% 29.78 in 10.0 mi West 13.8 mph 25.3 mph N/A   Clear
10:35 AM 19.4 °F 6.0 °F 8.6 °F 63% 29.78 in 10.0 mi West 13.8 mph 23.0 mph N/A   Clear
10:55 AM 19.4 °F 5.5 °F 6.8 °F 58% 29.79 in 10.0 mi West 15.0 mph 26.5 mph N/A   Clear
11:15 AM 21.2 °F 7.8 °F 8.6 °F 58% 29.79 in 10.0 mi West 15.0 mph 27.6 mph N/A   Clear
11:35 AM 21.2 °F 7.8 °F 6.8 °F 54% 29.80 in 10.0 mi WNW 15.0 mph 25.3 mph N/A   Clear
11:55 AM 19.4 °F 6.6 °F 6.8 °F 58% 29.81 in 10.0 mi West 12.7 mph 28.8 mph N/A   Clear
12:15 PM 19.4 °F 7.2 °F 6.8 °F 58% 29.81 in 10.0 mi WNW 11.5 mph 25.3 mph N/A   Clear
12:35 PM 19.4 °F 4.1 °F 6.8 °F 58% 29.82 in 10.0 mi West 18.4 mph 26.5 mph N/A   Clear
12:55 PM 19.4 °F 6.0 °F 5.0 °F 54% 29.83 in 10.0 mi West 13.8 mph 24.2 mph N/A   Clear
1:15 PM 19.4 °F 7.9 °F 6.8 °F 58% 29.84 in 10.0 mi West 10.4 mph 28.8 mph N/A   Clear
1:35 PM 19.4 °F 6.0 °F 5.0 °F 54% 29.85 in 10.0 mi West 13.8 mph 23.0 mph N/A   Clear
1:55 PM 19.4 °F 7.9 °F 5.0 °F 54% 29.87 in 10.0 mi West 10.4 mph 24.2 mph N/A   Clear
2:15 PM 19.4 °F 5.5 °F 3.2 °F 49% 29.88 in 10.0 mi West 15.0 mph 25.3 mph N/A   Clear
2:35 PM 19.4 °F 6.0 °F 3.2 °F 49% 29.89 in 10.0 mi West 13.8 mph 21.9 mph N/A   Clear
2:55 PM 17.6 °F 6.4 °F 3.2 °F 53% 29.91 in 10.0 mi West 9.2 mph 18.4 mph N/A   Clear
3:15 PM 17.6 °F 6.4 °F 3.2 °F 53% 29.92 in 10.0 mi West 9.2 mph 21.9 mph N/A   Clear
3:35 PM 17.6 °F 4.3 °F 3.2 °F 53% 29.92 in 10.0 mi West 12.7 mph 21.9 mph N/A   Clear
3:55 PM 17.6 °F 5.0 °F 3.2 °F 53% 29.93 in 10.0 mi West 11.5 mph 18.4 mph N/A   Clear
4:15 PM 17.6 °F 5.0 °F 3.2 °F 53% 29.94 in 10.0 mi West 11.5 mph 21.9 mph N/A   Clear
4:35 PM 15.8 °F 3.4 °F 3.2 °F 58% 29.95 in 10.0 mi West 10.4 mph 24.2 mph N/A   Clear
4:55 PM 15.8 °F 2.7 °F 3.2 °F 58% 29.95 in 10.0 mi West 11.5 mph 19.6 mph N/A   Clear
5:15 PM 15.8 °F 2.7 °F 3.2 °F 58% 29.97 in 10.0 mi West 11.5 mph 17.3 mph N/A   Clear
5:35 PM 15.8 °F 2.7 °F 3.2 °F 58% 29.98 in 10.0 mi West 11.5 mph 18.4 mph N/A   Clear
5:55 PM 14.0 °F 1.2 °F 3.2 °F 62% 30.00 in 10.0 mi West 10.4 mph 23.0 mph N/A   Clear
6:15 PM 14.0 °F 2.0 °F 3.2 °F 62% 30.01 in 10.0 mi West 9.2 mph 19.6 mph N/A   Clear
6:35 PM 14.0 °F 1.2 °F 3.2 °F 62% 30.03 in 10.0 mi West 10.4 mph 16.1 mph N/A   Clear
6:55 PM 12.2 °F 0.7 °F 3.2 °F 67% 30.05 in 10.0 mi West 8.1 mph 17.3 mph N/A   Clear
7:15 PM 12.2 °F -1.8 °F 3.2 °F 67% 30.07 in 10.0 mi West 11.5 mph 20.7 mph N/A   Clear
7:35 PM 12.2 °F -3.1 °F 1.4 °F 62% 30.09 in 10.0 mi West 13.8 mph 20.7 mph N/A   Clear
7:55 PM 12.2 °F -1.0 °F 3.2 °F 67% 30.10 in 10.0 mi West 10.4 mph 25.3 mph N/A   Clear
8:15 PM 12.2 °F -1.0 °F 1.4 °F 62% 30.10 in 10.0 mi West 10.4 mph 20.7 mph N/A   Clear
8:35 PM 12.2 °F -1.8 °F 1.4 °F 62% 30.10 in 10.0 mi West 11.5 mph 20.7 mph N/A   Clear
8:55 PM 10.4 °F -3.3 °F 1.4 °F 67% 30.11 in 10.0 mi West 10.4 mph 18.4 mph N/A   Clear
9:15 PM 10.4 °F -1.5 °F 1.4 °F 67% 30.11 in 10.0 mi West 8.1 mph 17.3 mph N/A   Clear
9:35 PM 10.4 °F -1.5 °F 1.4 °F 67% 30.12 in 10.0 mi West 8.1 mph 19.6 mph N/A   Clear
9:55 PM 10.4 °F -4.1 °F 1.4 °F 67% 30.13 in 10.0 mi West 11.5 mph 18.4 mph N/A   Clear
10:15 PM 10.4 °F -2.4 °F 1.4 °F 67% 30.13 in 10.0 mi West 9.2 mph - N/A   Clear
10:35 PM 10.4 °F 0.8 °F 3.2 °F 73% 30.13 in 10.0 mi West 5.8 mph - N/A   Clear
10:55 PM 10.4 °F -2.4 °F 1.4 °F 67% 30.13 in 10.0 mi West 9.2 mph 17.3 mph N/A   Clear
11:15 PM 10.4 °F -2.4 °F 1.4 °F 67% 30.13 in 10.0 mi West 9.2 mph - N/A   Clear
11:35 PM 8.6 °F -3.7 °F 3.2 °F 79% 30.15 in 10.0 mi West 8.1 mph - N/A   Clear
11:55 PM 8.6 °F -3.7 °F 1.4 °F 73% 30.16 in 10.0 mi West 8.1 mph - N/A   Clear